Regional Weather Roundup
Issued by NWS

Home | Current Version | Previous Version | Graphics & Text | Print | Product List | Glossary On
Versions: 1 2 3 4 5 6 7 8 9 10 11 12 13 14 15 16 17 18 19 20 21 22 23 24 25 26 27 28 29 30 31 32 33 34 35 36 37 38 39 40 41 42 43 44 45 46 47 48 49 50
000
ASUS43 KBIS 020602
RWRND

NORTH DAKOTA REGIONAL WEATHER ROUNDUP
NATIONAL WEATHER SERVICE BISMARCK ND
100 AM CDT THU JUL 02 2015

NOTE: "FAIR" INDICATES FEW OR NO CLOUDS BELOW 12,000 FEET WITH NO
SIGNIFICANT WEATHER AND/OR OBSTRUCTIONS TO VISIBILITY.


NDZ001>003-009>011-017-020700-
NORTHWEST NORTH DAKOTA

CITY           SKY/WX    TMP DP  RH WIND       PRES   REMARKS
WILLISTON      MOCLDY    64  60  87 NW3       29.99F
6HR MIN TEMP:  64; 6HR MAX TEMP:  76; 6HR PCP:  0.04;

MINOT          CLOUDY    67  63  87 CALM      29.95F FOG
MINOT AFB      CLOUDY    63  63 100 SW2       29.94F FOG
$$

NDZ018>021-031>035-040>046-020700-
SOUTHWEST NORTH DAKOTA

CITY           SKY/WX    TMP DP  RH WIND       PRES   REMARKS
BISMARCK       CLOUDY    67  65  93 CALM      29.96S
6HR MIN TEMP:  66; 6HR MAX TEMP:  77; 6HR PCP: TRACE;

DICKINSON      PTCLDY    62  60  93 W6        29.99S FOG
GARRISON         N/A     69  64  84 NE6       29.96S
6HR MIN TEMP:  66; 6HR MAX TEMP:  76;

HETTINGER ARPT LGT RAIN  65  61  87 E8        29.99F
$$

NDZ004>008-012>016-024-026-027-054-020700-
NORTHEAST NORTH DAKOTA

CITY           SKY/WX    TMP DP  RH WIND       PRES   REMARKS
GRAND FORKS    CLEAR     63  59  87 S6        29.94S
GRND FRKS AFB  CLEAR     64  59  85 SW7       29.95S
DEVILS LAKE    CLOUDY    70  61  73 S8        29.94S
$$

NDZ022-023-025-028>030-036>039-047>053-020700-
SOUTHEAST NORTH DAKOTA

CITY           SKY/WX    TMP DP  RH WIND       PRES   REMARKS
FARGO          CLEAR     63  56  78 S7        29.98R
6HR MIN TEMP:  63; 6HR MAX TEMP:  73;

JAMESTOWN      PTCLDY    64  61  90 S5        29.96F
$$



USA.gov is the U.S. government's official web portal to all federal, state and local government web resources and services.